DIRECTV 8

Last updated on Sat Aug 15 2026 00:02:57 GMT+0000 (Coordinated Universal Time)

1 28659U 05019A 26226.54439596 -.00000014 00000+0 00000+0 0 9992 2 28659 0.0173 120.6498 0003072 29.9978 249.2254 1.00272229 77657
UTC large
Height (km)
Speed (km/s)
/
Latitude / Longitude
Inclination (degrees)
Orbital Period (minutes)
Azimuth
Elevation
Range (km)
Doppler Factor

Next 0 passes for location: London (51.5072 / 0.1276)

No passes found over London.
DIRECTV 8